Location: White Rock
(35.8256°N, 106.1876°W)
Time: 00:30:40
(UTC-07:00)

Envisat - Visible Passes

Search period start: 24 January 2019 00:00
Search period end: 03 February 2019 00:00
Orbit: 764 x 766 km, 98.2° (Epoch: 24 January)

Date Brightness Start Highest point End Pass type
(mag) Time Alt. Az. Time Alt. Az. Time Alt. Az.
24 Jan 3.0 18:33:15 10° SSE 18:38:11 56° ENE 18:43:09 10° N visible
24 Jan 5.9 20:14:56 10° WSW 20:17:31 14° W 20:20:07 10° WNW visible
25 Jan 4.0 17:57:38 10° ESE 18:01:41 25° ENE 18:05:45 10° NNE visible
25 Jan 4.6 19:35:58 10° SSW 19:40:30 33° W 19:45:04 10° NNW visible
26 Jan 3.0 18:58:37 10° S 19:03:41 80° WSW 19:08:46 10° NNW visible
27 Jan 3.3 18:22:16 10° SE 18:27:03 44° ENE 18:31:50 10° N visible
27 Jan 5.6 20:02:47 10° SW 20:06:13 18° W 20:09:40 10° NW visible
28 Jan 5.9 06:34:56 10° NE 06:38:29 19° E 06:42:01 10° SE visible
28 Jan 4.2 17:47:02 10° ESE 17:50:35 20° ENE 17:54:10 10° NNE visible
28 Jan 4.2 19:24:28 10° S 19:29:15 43° W 19:34:05 10° NNW visible
29 Jan 2.9 18:47:26 10° SSE 18:52:29 81° ENE 18:57:35 10° N visible
30 Jan 3.6 18:11:22 10° SE 18:15:54 34° ENE 18:20:27 10° N visible
30 Jan 5.2 19:50:56 10° SSW 19:54:56 23° W 19:58:57 10° NW visible
31 Jan 6.2 06:24:26 10° ENE 06:27:11 15° E 06:29:56 10° SE visible
31 Jan 3.7 19:13:04 10° S 19:18:01 55° W 19:23:01 10° NNW visible
01 Feb 2.9 18:36:20 10° SSE 18:41:19 62° ENE 18:46:19 10° N visible
01 Feb 6.0 20:18:35 10° WSW 20:20:42 12° W 20:22:49 10° WNW visible
02 Feb 3.9 18:00:34 10° SE 18:04:47 27° ENE 18:09:00 10° NNE visible
02 Feb 4.8 19:39:15 10° SSW 19:43:39 30° W 19:48:06 10° NW visible
